TimeAKDT,TemperatureF,Dew PointF,Humidity,Sea Level PressureIn,VisibilityMPH,Wind Direction,Wind SpeedMPH,Gust SpeedMPH,PrecipitationIn,Events,Conditions,WindDirDegrees,DateUTC
12:53 AM,46.9,42.1,83,29.79,10.0,SSE,24.2,33.4,0.00,Rain,Light Rain,160,2013-10-28 08:53:00
1:53 AM,48.9,41.0,74,29.75,10.0,SSE,28.8,40.3,0.00,Rain,Light Rain,160,2013-10-28 09:53:00
2:53 AM,51.1,39.9,66,29.71,10.0,SSE,31.1,40.3,0.00,,Partly Cloudy,160,2013-10-28 10:53:00
3:53 AM,50.0,37.0,61,29.69,10.0,South,28.8,38.0,N/A,,Clear,170,2013-10-28 11:53:00
4:53 AM,50.0,36.0,59,29.63,10.0,SSE,26.5,38.0,N/A,,Clear,160,2013-10-28 12:53:00
5:53 AM,51.1,33.1,50,29.63,10.0,SSE,29.9,38.0,N/A,,Clear,160,2013-10-28 13:53:00
6:53 AM,51.1,32.0,48,29.60,10.0,SSE,20.7,29.9,N/A,,Clear,150,2013-10-28 14:53:00
7:53 AM,52.0,33.1,49,29.55,10.0,SSE,23.0,33.4,N/A,,Partly Cloudy,150,2013-10-28 15:53:00
8:53 AM,53.1,35.1,50,29.49,10.0,SSE,33.4,44.9,N/A,,Mostly Cloudy,150,2013-10-28 16:53:00
9:53 AM,53.1,37.0,55,29.46,10.0,SSE,29.9,42.6,N/A,,Overcast,150,2013-10-28 17:53:00
10:53 AM,54.0,37.0,53,29.44,10.0,SSE,23.0,39.1,N/A,,Overcast,160,2013-10-28 18:53:00
11:53 AM,54.0,37.9,55,29.39,10.0,South,24.2,32.2,N/A,,Overcast,170,2013-10-28 19:53:00
12:53 PM,54.0,37.9,55,29.31,10.0,SSE,18.4,36.8,N/A,,Clear,160,2013-10-28 20:53:00
1:53 PM,54.0,39.0,57,29.29,10.0,South,18.4,29.9,0.00,Rain,Light Rain,190,2013-10-28 21:53:00
2:53 PM,48.0,41.0,77,29.30,10.0,SSE,23.0,33.4,0.03,Rain,Light Rain,160,2013-10-28 22:53:00
3:53 PM,46.9,39.0,74,29.33,10.0,South,19.6,29.9,0.00,,Overcast,170,2013-10-28 23:53:00
4:53 PM,46.0,39.0,76,29.30,10.0,SSE,19.6,25.3,0.00,Rain,Light Rain,160,2013-10-29 00:53:00
5:53 PM,44.1,39.0,82,29.30,10.0,SSE,20.7,33.4,0.00,,Partly Cloudy,160,2013-10-29 01:53:00
6:53 PM,44.1,37.9,79,29.30,10.0,SSE,19.6,33.4,N/A,,Clear,160,2013-10-29 02:53:00
7:53 PM,45.0,36.0,71,29.36,10.0,South,17.3,29.9,N/A,,Mostly Cloudy,170,2013-10-29 03:53:00
8:53 PM,43.0,36.0,76,29.37,10.0,SSE,16.1,-,N/A,,Partly Cloudy,160,2013-10-29 04:53:00
9:53 PM,42.1,34.0,73,29.37,10.0,SSE,11.5,-,N/A,,Unknown,150,2013-10-29 05:53:00
10:53 PM,41.0,34.0,76,29.38,10.0,SSE,13.8,-,N/A,,Clear,150,2013-10-29 06:53:00
11:53 PM,42.1,33.1,70,29.40,10.0,South,16.1,21.9,N/A,,Scattered Clouds,170,2013-10-29 07:53:00